Regional Weather Roundup
Issued by NWS State College, PA

Home | Current Version | Previous Version | Text Only | Print | Product List | Glossary Off
Versions: 1 2 3 4 5 6 7 8 9 10 11 12 13 14 15 16 17 18 19 20 21 22 23 24 25 26 27 28 29 30 31 32 33 34 35 36 37 38 39 40 41 42 43 44 45 46 47 48 49 50

000
ASUS41 KCTP 041910
RWRCTP

REGIONAL WEATHER ROUNDUP
NATIONAL WEATHER SERVICE STATE COLLEGE PA
300 PM EDT MON MAY 04 2015

Note: "fair" indicates few or no clouds below 12,000 feet with no
significant weather and/or obstructions to visibility.

* = STATION THAT DOES NOT REPORT PRECIPITATION /E.G. RAIN...SNOW...ETC/
    THUNDER OR FOG.

PAZ002>004-007>009-013>016-020>023-029>032-042000-
WESTERN PENNSYLVANIA

CITY           SKY/WX    TMP DP  RH WIND       PRES   REMARKS
ERIE           PTSUNNY   74  45  35 W16G24    30.09S
MEADVILLE      PTSUNNY   77  45  32 SW12G23   30.13S
FRANKLIN*      PTSUNNY   79  45  29 SW18G25   30.16S
NEW CASTLE     FAIR      82  49  31 SW14G24   30.15S
BEAVER COUNTY  MOSUNNY   79  46  31 SW13G24   30.16S
BUTLER*        MOSUNNY   81  46  30 SW12G23   30.17F
PITTSBURGH INT CLOUDY    81  44  27 W18G29    30.15F
PITTSBURGH     MOSUNNY   80  40  23 SW15G24   30.16F
INDIANA*       SUNNY     79  48  34 W12G21    30.20F
LATROBE        MOSUNNY   77  46  33 SW12G23   30.19F
WASHINGTON CO* PTSUNNY   81  48  32 SW12G21   30.19F
$$

PAZ004>006-010>012-017>019-024>028-033>037-041-042-045-046-049>053-042000-
CENTRAL PENNSYLVANIA

CITY           SKY/WX    TMP DP  RH WIND       PRES   REMARKS
BRADFORD       MOSUNNY   77  39  25 SW15G26   30.14F
DUBOIS         MOSUNNY   79  43  27 SW15G31   30.15F
CLEARFIELD     MOSUNNY   81  42  25 SW13G25   30.15
JOHNSTOWN      MOSUNNY   77  43  29 SW18      30.20F
ALTOONA        PTSUNNY   81  41  24 SW12      30.17F
STATE COLLEGE  SUNNY     82  43  24 SW16G26   30.14F
WILLIAMSPORT   MOSUNNY   85  38  18 W13G28    30.09F
SELINSGROVE    MOSUNNY   81  49  32 S9        30.13F
FT INDIANTOWN  MOSUNNY   84  45  24 S16G22    30.15S
CAPITAL CITY   PTSUNNY   84  45  25 SW12G23   30.15F
HARRISBURG     MOSUNNY   83  43  24 SW16G28   30.15
YORK           MOSUNNY   82  45  27 SW14G22   30.17S
$$

PAZ038>040-043-044-047-048-054-055-060>062-067>071-042000-
EASTERN PENNSYLVANIA

CITY           SKY/WX    TMP DP  RH WIND       PRES   REMARKS
SCRANTON       MOSUNNY   83  38  20 SW15G30   30.12F
MOUNT POCONO   SUNNY     78  36  21 SW20G28   30.19F
ALLENTOWN      MOSUNNY   84  42  22 SW12G22   30.15F
QUAKERTOWN*    CLEAR     82  43  24 SW10G21   30.17F
READING        MOSUNNY   85  42  22 SW20G25   30.14F
LANCASTER      MOSUNNY   81  41  24 SW14G24   30.16S
COATESVILLE    CLEAR     81  41  24 S10G21    30.20S
POTTSTOWN      MOSUNNY   82  39  21 S12G24    30.18F
BLUE BELL      SUNNY     82  45  26 SW13G18   30.17F
DOYLESTOWN     MOSUNNY   82  36  19 SW10G21   30.16F
WILLOW GROVE   NOT AVBL
NORTH PHILA    PTSUNNY   84  39  20 SW14G24   30.19F
PHILADELPHIA   MOSUNNY   85  42  22 SW18      30.18F
$$


USA.gov is the U.S. government's official web portal to all federal, state and local government web resources and services.